• In Portugal
  • List of Countries
  • For 7 days
  • Water Temperature
  • Satellite Maps
  • Weather Map
  • Weather Widgets
  • user-avatar
    Login

    Hourly Weather Kandahar

    Today, 24 November, Friday

    Time Temperature Precipitation Wind Pressure Humidity
    00:00 +14°C° 0 mm 2 mps 674 mmHg 10%
    01:00 +14°C° 0 mm 2 mps 674 mmHg 10%
    02:00 +14°C° 0 mm 2 mps 674 mmHg 10%
    03:00 +14°C° 0 mm 2 mps 673 mmHg 11%
    04:00 +14°C° 0 mm 2 mps 673 mmHg 11%
    05:00 +14°C° 0 mm 2 mps 674 mmHg 10%
    06:00 +14°C° 0 mm 2 mps 674 mmHg 10%
    07:00 +15°C° 0 mm 2 mps 674 mmHg 10%
    08:00 +17°C° 0 mm 3 mps 675 mmHg 10%
    09:00 +19°C° 0 mm 3 mps 675 mmHg 9%
    10:00 +21°C° 0 mm 3 mps 676 mmHg 7%
    11:00 +21°C° 0 mm 3 mps 676 mmHg 8%
    12:00 +23°C° 0 mm 2 mps 676 mmHg 9%
    13:00 +23°C° 0 mm 2 mps 676 mmHg 10%
    14:00 +23°C° 0 mm 2 mps 675 mmHg 11%
    15:00 +21°C° 0 mm 2 mps 675 mmHg 12%
    16:00 +22°C° 0 mm 1 mps 675 mmHg 13%
    17:00 +20°C° 0 mm 2 mps 675 mmHg 14%
    18:00 +19°C° 0 mm 2 mps 675 mmHg 14%
    19:00 +18°C° 0 mm 3 mps 675 mmHg 14%
    20:00 +17°C° 0 mm 3 mps 675 mmHg 15%
    21:00 +17°C° 0 mm 3 mps 675 mmHg 16%
    22:00 +16°C° 0 mm 3 mps 675 mmHg 16%
    23:00 +16°C° 0 mm 3 mps 675 mmHg 18%

    Tomorrow, 25 November, Saturday

    Time Temperature Precipitation Wind Pressure Humidity
    00:00 +16°C° 0 mm 3 mps 674 mmHg 19%
    01:00 +14°C° 0 mm 3 mps 674 mmHg 21%
    02:00 +14°C° 0 mm 3 mps 674 mmHg 21%
    03:00 +15°C° 0 mm 2 mps 674 mmHg 22%
    04:00 +14°C° 0 mm 2 mps 674 mmHg 23%
    05:00 +15°C° 0 mm 2 mps 674 mmHg 24%
    06:00 +15°C° 0 mm 2 mps 675 mmHg 24%
    07:00 +15°C° 0 mm 2 mps 675 mmHg 25%
    08:00 +16°C° 0 mm 3 mps 676 mmHg 28%
    09:00 +18°C° 0 mm 3 mps 676 mmHg 30%
    10:00 +19°C° 0 mm 3 mps 677 mmHg 32%
    11:00 +20°C° 0 mm 3 mps 677 mmHg 32%
    12:00 +20°C° 0 mm 3 mps 676 mmHg 32%
    13:00 +21°C° 0 mm 4 mps 676 mmHg 32%
    14:00 +21°C° 0 mm 4 mps 676 mmHg 31%
    15:00 +21°C° 0 mm 4 mps 676 mmHg 31%
    16:00 +20°C° 0 mm 4 mps 676 mmHg 31%
    17:00 +19°C° 0 mm 3 mps 677 mmHg 34%
    18:00 +18°C° 0 mm 2 mps 677 mmHg 37%
    19:00 +16°C° 0 mm 2 mps 677 mmHg 40%
    20:00 +16°C° 0 mm 2 mps 677 mmHg 42%
    21:00 +15°C° 0 mm 1 mps 677 mmHg 43%
    22:00 +14°C° 0 mm 1 mps 677 mmHg 45%
    23:00 +14°C° 0 mm 1 mps 677 mmHg 46%

    Day after tomorrow, 26 November, Sunday

    Time Temperature Precipitation Wind Pressure Humidity
    00:00 +13°C° 0 mm 1 mps 677 mmHg 47%
    01:00 +13°C° 0 mm 1 mps 677 mmHg 48%
    02:00 +12°C° 0 mm 1 mps 677 mmHg 49%
    03:00 +12°C° 0 mm 1 mps 677 mmHg 50%
    04:00 +11°C° 0 mm 1 mps 677 mmHg 51%
    05:00 +11°C° 0 mm 1 mps 677 mmHg 51%
    06:00 +11°C° 0 mm 1 mps 678 mmHg 50%
    07:00 +11°C° 0 mm 1 mps 678 mmHg 49%
    08:00 +13°C° 0 mm 1 mps 679 mmHg 43%
    09:00 +15°C° 0 mm 1 mps 680 mmHg 36%
    10:00 +18°C° 0 mm 1 mps 681 mmHg 29%
    11:00 +18°C° 0 mm 2 mps 680 mmHg 25%
    12:00 +19°C° 0 mm 2 mps 680 mmHg 21%
    13:00 +20°C° 0 mm 3 mps 679 mmHg 17%
    14:00 +19°C° 0 mm 3 mps 679 mmHg 17%
    15:00 +19°C° 0 mm 3 mps 679 mmHg 16%
    16:00 +19°C° 0 mm 3 mps 679 mmHg 16%
    17:00 +17°C° 0 mm 2 mps 679 mmHg 17%
    18:00 +16°C° 0 mm 2 mps 679 mmHg 19%
    19:00 +14°C° 0 mm 2 mps 679 mmHg 21%
    20:00 +14°C° 0 mm 2 mps 679 mmHg 21%
    21:00 +13°C° 0 mm 1 mps 679 mmHg 21%
    22:00 +12°C° 0 mm 1 mps 678 mmHg 21%
    23:00 +12°C° 0 mm 1 mps 678 mmHg 21%

    27 November, Monday

    Time Temperature Precipitation Wind Pressure Humidity
    00:00 +11°C° 0 mm 1 mps 678 mmHg 20%
    01:00 +11°C° 0 mm 1 mps 677 mmHg 20%
    02:00 +10°C° 0 mm 1 mps 677 mmHg 20%
    03:00 +10°C° 0 mm 1 mps 676 mmHg 21%
    04:00 +9°C° 0 mm 1 mps 676 mmHg 21%
    05:00 +9°C° 0 mm 1 mps 676 mmHg 20%
    06:00 +9°C° 0 mm 1 mps 677 mmHg 20%
    07:00 +10°C° 0 mm 1 mps 677 mmHg 19%
    08:00 +12°C° 0 mm 1 mps 678 mmHg 17%
    09:00 +14°C° 0 mm 1 mps 678 mmHg 14%
    10:00 +16°C° 0 mm 2 mps 679 mmHg 11%
    11:00 +17°C° 0 mm 2 mps 679 mmHg 11%
    12:00 +18°C° 0 mm 3 mps 678 mmHg 10%
    13:00 +19°C° 0 mm 3 mps 678 mmHg 10%
    14:00 +19°C° 0 mm 3 mps 677 mmHg 10%
    15:00 +18°C° 0 mm 3 mps 677 mmHg 11%
    16:00 +18°C° 0 mm 3 mps 677 mmHg 11%
    17:00 +16°C° 0 mm 2 mps 676 mmHg 13%
    18:00 +15°C° 0 mm 2 mps 676 mmHg 14%
    19:00 +13°C° 0 mm 1 mps 676 mmHg 16%
    20:00 +13°C° 0 mm 1 mps 676 mmHg 17%
    21:00 +12°C° 0 mm 1 mps 676 mmHg 18%
    22:00 +11°C° 0 mm 1 mps 676 mmHg 19%
    23:00 +10°C° 0 mm 0 mps 675 mmHg 19%

    28 November, Tuesday

    Time Temperature Precipitation Wind Pressure Humidity
    00:00 +9°C° 0 mm 0 mps 675 mmHg 20%
    01:00 +9°C° 0 mm 0 mps 674 mmHg 20%
    02:00 +9°C° 0 mm 0 mps 674 mmHg 20%
    03:00 +8°C° 0 mm 0 mps 674 mmHg 21%
    04:00 +8°C° 0 mm 0 mps 673 mmHg 21%
    05:00 +8°C° 0 mm 0 mps 674 mmHg 21%
    06:00 +9°C° 0 mm 0 mps 674 mmHg 20%
    07:00 +9°C° 0 mm 0 mps 674 mmHg 20%
    08:00 +11°C° 0 mm 0 mps 675 mmHg 17%
    09:00 +14°C° 0 mm 0 mps 675 mmHg 15%
    10:00 +16°C° 0 mm 0 mps 676 mmHg 12%
    11:00 +19°C° 0 mm 1 mps 676 mmHg 11%
    12:00 +20°C° 0 mm 1 mps 675 mmHg 11%
    13:00 +20°C° 0 mm 1 mps 675 mmHg 10%
    14:00 +19°C° 0 mm 2 mps 675 mmHg 10%
    15:00 +19°C° 0 mm 2 mps 675 mmHg 10%
    16:00 +19°C° 0 mm 2 mps 674 mmHg 11%
    17:00 +17°C° 0 mm 2 mps 674 mmHg 12%
    18:00 +15°C° 0 mm 1 mps 674 mmHg 14%
    19:00 +14°C° 0 mm 1 mps 674 mmHg 15%
    20:00 +13°C° 0 mm 1 mps 674 mmHg 16%
    21:00 +12°C° 0 mm 1 mps 674 mmHg 17%
    22:00 +12°C° 0 mm 1 mps 675 mmHg 18%
    23:00 +11°C° 0 mm 1 mps 674 mmHg 18%

    29 November, Wednesday

    Time Temperature Precipitation Wind Pressure Humidity
    00:00 +11°C° 0 mm 1 mps 674 mmHg 19%
    01:00 +10°C° 0 mm 1 mps 674 mmHg 20%
    02:00 +10°C° 0 mm 1 mps 674 mmHg 20%
    03:00 +10°C° 0 mm 1 mps 674 mmHg 21%
    04:00 +8°C° 0 mm 0 mps 674 mmHg 21%
    05:00 +8°C° 0 mm 0 mps 674 mmHg 21%
    06:00 +8°C° 0 mm 0 mps 675 mmHg 20%
    07:00 +8°C° 0 mm 0 mps 675 mmHg 20%
    08:00 +11°C° 0 mm 0 mps 676 mmHg 17%
    09:00 +14°C° 0 mm 1 mps 677 mmHg 15%
    10:00 +18°C° 0 mm 1 mps 678 mmHg 12%
    11:00 +19°C° 0 mm 1 mps 678 mmHg 12%
    12:00 +19°C° 0 mm 2 mps 677 mmHg 11%
    13:00 +19°C° 0 mm 2 mps 677 mmHg 10%
    14:00 +19°C° 0 mm 3 mps 677 mmHg 11%
    15:00 +18°C° 0 mm 3 mps 677 mmHg 12%
    16:00 +18°C° 0 mm 3 mps 676 mmHg 12%
    17:00 +17°C° 0 mm 2 mps 677 mmHg 14%
    18:00 +15°C° 0 mm 2 mps 677 mmHg 15%
    19:00 +14°C° 0 mm 2 mps 677 mmHg 17%
    20:00 +13°C° 0 mm 2 mps 677 mmHg 18%
    21:00 +12°C° 0 mm 1 mps 677 mmHg 18%
    22:00 +12°C° 0 mm 1 mps 677 mmHg 19%
    23:00 +11°C° 0 mm 1 mps 676 mmHg 21%
    Show more